TITAN 3C TRANSTAGE DEB, 27794

Orbit data source: Space-Track

TITAN 3C TRANSTAGE DEB, 27794 is space debris in HEO originally from a launch on Tue, 21 Dec 1965 UTC launched from the Air Force Eastern Test Range (AFETR). Debris objects in space refer to the collection of defunct objects orbiting the Earth. Examples of debris include non-operational satellites, rocket bodies, and fragments generated from explosions, collisions, or faulty payload assembly.

Loading next visibility...
Identifier
27794, 1965-108BJ
Orbit
HEO
Country
Flag of USUS
Related business
Manufacturer
Unknown
Mission
Spacecraft
Bus & Motor
Unknown
Mass
Unknown
Launch date (UTC)
1965-12-21 (60 years ago)
Launch vehicle
Unknown
Launch site
Air Force Eastern Test Range (AFETR)
Object type
Payload
Rocket body
Debris
Shape & HBR
Unknown shape, 0.1 m
Radar Cross Section
Small (<0.1 m²)

Expand to show TLE details & history
Last TLE update: 7 months ago

TLE from 7 months ago
0 TITAN 3C TRANSTAGE DEB
1 27794U 65108BJ  25072.44929896  .00000031  00000-0  34170-2 0  9997
2 27794  26.6725 331.6171 6708581 205.4937 353.6257  2.76934994110169
Epoch: 2025-03-13T10:46Z
TLE epoch observation values (Epoch: 2025-03-13T10:46:59.430Z)
Latitude
6.70825°
Longitude
165.09331°
Altitude
1,399.631 km
Speed
9.159 km/s
True Right ascension
09h 12m 39s
True Declination
6° 40' 18"
Sunlit
Object was in full shadow at epoch
Visualization orbit readout
Latitude
Unknown
Longitude
Unknown
Altitude
Unknown
Speed
Unknown
Apparent Right ascension
Unknown
Apparent Declination
Unknown
Sunlit
N/A
Visualization observer readout
Local Sidereal Time
13:37:12
Azimuth
Unknown
Elevation
Unknown
Doppler factor
Unknown
Orbital elements
Apogee altitude
29,417.309 km
Perigee altitude
673.199 km
Semi-major axis
21,423.391 km
Eccentricity
0.67086
Inclination
26.6725°
RAAN
331.6171°
Arg. of periapsis
205.4937°
True anomaly
319.30488°
Mean anomaly
353.6257°
Eccentric anomaly
341.30601°
Mean motion
0.69217 °/min
Orbital period
520.11 mins
BSTAR
0.003417
Loading maneuver chart data...
Computing Atmospheric mass density...

Documentation

Showing up to 5 results
|